Time,TemperatureF,DewpointF,PressureIn,WindDirection,WindDirectionDegrees,WindSpeedMPH,WindSpeedGustMPH,Humidity,HourlyPrecipIn,Conditions,Clouds,dailyrainin,SolarRadiationWatts/m^2,SoftwareType,DateUTC
2013-01-03 00:00:00,15.6,13.4,30.25,WNW,291,0.0,0.0,91,0.00,,---,0.00,0.00,VWS V14.00,2013-01-03 05:00:00,
2013-01-03 00:03:00,15.5,13.4,30.25,WNW,291,0.0,0.0,91,0.00,,---,0.00,0.00,VWS V14.00,2013-01-03 05:03:00,
2013-01-03 00:08:00,15.4,13.2,30.25,WNW,291,0.0,0.0,91,0.00,,---,0.00,0.00,VWS V14.00,2013-01-03 05:08:00,
2013-01-03 00:13:00,15.3,13.1,30.25,WNW,291,0.0,0.0,91,0.00,,---,0.00,0.00,VWS V14.00,2013-01-03 05:13:00,
2013-01-03 00:18:00,15.3,13.4,30.24,WNW,291,0.0,0.0,92,0.00,,---,0.00,0.00,VWS V14.00,2013-01-03 05:18:00,
2013-01-03 00:23:00,15.2,13.3,30.24,WNW,291,0.0,0.0,92,0.00,,---,0.00,0.00,VWS V14.00,2013-01-03 05:23:00,
2013-01-03 00:28:00,15.3,13.4,30.24,WNW,291,0.0,0.0,92,0.00,,---,0.00,0.00,VWS V14.00,2013-01-03 05:28:00,
2013-01-03 00:30:00,15.3,13.4,30.24,WNW,291,0.0,0.0,92,0.00,,---,0.00,0.00,VWS V14.00,2013-01-03 05:30:00,
2013-01-03 00:33:00,15.3,13.6,30.24,WNW,291,0.0,0.0,93,0.00,,---,0.00,0.00,VWS V14.00,2013-01-03 05:33:00,
2013-01-03 00:38:00,15.5,13.8,30.24,WNW,291,0.0,0.0,93,0.00,,---,0.00,0.00,VWS V14.00,2013-01-03 05:38:00,
2013-01-03 00:43:00,15.6,13.9,30.23,WNW,291,0.0,0.0,93,0.00,,---,0.00,0.00,VWS V14.00,2013-01-03 05:43:00,
2013-01-03 00:48:00,15.5,13.8,30.23,WNW,291,0.0,0.0,93,0.00,,---,0.00,0.00,VWS V14.00,2013-01-03 05:48:00,
2013-01-03 00:53:00,15.3,13.4,30.23,WNW,291,0.0,0.0,92,0.00,,---,0.00,0.00,VWS V14.00,2013-01-03 05:53:00,
2013-01-03 00:58:00,15.2,13.3,30.23,WNW,291,0.0,0.0,92,0.00,,---,0.00,0.00,VWS V14.00,2013-01-03 05:58:00,
2013-01-03 01:00:00,15.2,13.5,30.23,WNW,291,0.0,0.0,93,0.00,,---,0.00,0.00,VWS V14.00,2013-01-03 06:00:00,
2013-01-03 01:03:00,15.2,13.5,30.23,WNW,291,0.0,0.0,93,0.00,,---,0.00,0.00,VWS V14.00,2013-01-03 06:03:00,
2013-01-03 01:08:00,15.1,13.4,30.22,WNW,291,0.0,0.0,93,0.00,,---,0.00,0.00,VWS V14.00,2013-01-03 06:08:00,
2013-01-03 01:13:00,15.0,13.1,30.22,WNW,291,0.0,0.0,92,0.00,,---,0.00,0.00,VWS V14.00,2013-01-03 06:13:00,
2013-01-03 01:18:00,14.9,13.2,30.23,WNW,291,0.0,0.0,93,0.00,,---,0.00,0.00,VWS V14.00,2013-01-03 06:18:00,
2013-01-03 01:23:00,14.8,12.9,30.23,WNW,291,0.0,0.0,92,0.00,,---,0.00,0.00,VWS V14.00,2013-01-03 06:23:00,
2013-01-03 01:28:00,14.4,12.5,30.23,WNW,291,0.0,0.0,92,0.00,,---,0.00,0.00,VWS V14.00,2013-01-03 06:28:00,
2013-01-03 01:30:00,14.3,12.4,30.23,WNW,291,0.0,0.0,92,0.00,,---,0.00,0.00,VWS V14.00,2013-01-03 06:30:00,
2013-01-03 01:33:00,14.3,12.6,30.24,WNW,291,0.0,0.0,93,0.00,,---,0.00,0.00,VWS V14.00,2013-01-03 06:33:00,
2013-01-03 01:38:00,14.5,12.9,30.23,WNW,291,0.0,0.0,93,0.00,,---,0.00,0.00,VWS V14.00,2013-01-03 06:38:00,
2013-01-03 01:43:00,14.6,12.9,30.23,WNW,291,0.0,0.0,93,0.00,,---,0.00,0.00,VWS V14.00,2013-01-03 06:43:00,
2013-01-03 01:48:00,14.6,12.9,30.23,WNW,291,0.0,0.0,93,0.00,,---,0.00,0.00,VWS V14.00,2013-01-03 06:48:00,
2013-01-03 01:53:00,14.5,12.9,30.23,WNW,291,0.0,0.0,93,0.00,,---,0.00,0.00,VWS V14.00,2013-01-03 06:53:00,
2013-01-03 01:58:00,14.4,12.8,30.23,WNW,291,0.0,0.0,93,0.00,,---,0.00,0.00,VWS V14.00,2013-01-03 06:58:00,
2013-01-03 02:00:00,14.4,12.8,30.23,WNW,291,0.0,0.0,93,0.00,,---,0.00,0.00,VWS V14.00,2013-01-03 07:00:00,
2013-01-03 02:03:00,14.3,12.6,30.23,WNW,291,0.0,0.0,93,0.00,,---,0.00,0.00,VWS V14.00,2013-01-03 07:03:00,
2013-01-03 02:08:00,14.3,12.6,30.23,WNW,291,0.0,0.0,93,0.00,,---,0.00,0.00,VWS V14.00,2013-01-03 07:08:00,
2013-01-03 02:13:00,14.1,12.2,30.24,WNW,291,0.0,0.0,92,0.00,,---,0.00,0.00,VWS V14.00,2013-01-03 07:13:00,
2013-01-03 02:18:00,14.0,12.1,30.24,WNW,291,0.0,0.0,92,0.00,,---,0.00,0.00,VWS V14.00,2013-01-03 07:18:00,
2013-01-03 02:24:00,14.0,12.4,30.24,WNW,291,0.0,0.0,93,0.00,,---,0.00,0.00,VWS V14.00,2013-01-03 07:24:00,
2013-01-03 02:29:00,13.9,12.0,30.24,WNW,291,0.0,0.0,92,0.00,,---,0.00,0.00,VWS V14.00,2013-01-03 07:29:00,
2013-01-03 02:30:00,13.8,11.9,30.24,WNW,291,0.0,0.0,92,0.00,,---,0.00,0.00,VWS V14.00,2013-01-03 07:30:00,
2013-01-03 02:34:00,13.7,11.8,30.24,WNW,291,0.0,0.0,92,0.00,,---,0.00,0.00,VWS V14.00,2013-01-03 07:34:00,
2013-01-03 02:39:00,13.5,11.6,30.24,WNW,291,0.0,0.0,92,0.00,,---,0.00,0.00,VWS V14.00,2013-01-03 07:39:00,
2013-01-03 02:44:00,13.4,11.5,30.24,WNW,291,0.0,0.0,92,0.00,,---,0.00,0.00,VWS V14.00,2013-01-03 07:44:00,
2013-01-03 02:49:00,13.2,11.3,30.24,WNW,291,0.0,0.0,92,0.00,,---,0.00,0.00,VWS V14.00,2013-01-03 07:49:00,
2013-01-03 02:54:00,12.9,11.0,30.24,WNW,291,0.0,0.0,92,0.00,,---,0.00,0.00,VWS V14.00,2013-01-03 07:54:00,
2013-01-03 02:59:00,12.8,10.9,30.24,WNW,291,0.0,0.0,92,0.00,,---,0.00,0.00,VWS V14.00,2013-01-03 07:59:00,
2013-01-03 03:00:00,12.8,11.2,30.24,WNW,291,0.0,0.0,93,0.00,,---,0.00,0.00,VWS V14.00,2013-01-03 08:00:00,
2013-01-03 03:04:00,12.9,11.3,30.24,WNW,291,0.0,0.0,93,0.00,,---,0.00,0.00,VWS V14.00,2013-01-03 08:04:00,
2013-01-03 03:09:00,13.1,11.5,30.24,WNW,291,0.0,0.0,93,0.00,,---,0.00,0.00,VWS V14.00,2013-01-03 08:09:00,
2013-01-03 03:14:00,13.1,11.5,30.24,WNW,291,0.0,0.0,93,0.00,,---,0.00,0.00,VWS V14.00,2013-01-03 08:14:00,
2013-01-03 03:19:00,12.8,10.9,30.24,WNW,291,0.0,0.0,92,0.00,,---,0.00,0.00,VWS V14.00,2013-01-03 08:19:00,
2013-01-03 03:24:00,12.7,10.8,30.24,WNW,291,0.0,0.0,92,0.00,,---,0.00,0.00,VWS V14.00,2013-01-03 08:24:00,
2013-01-03 03:29:00,12.6,10.7,30.24,WNW,291,0.0,0.0,92,0.00,,---,0.00,0.00,VWS V14.00,2013-01-03 08:29:00,
2013-01-03 03:30:00,12.5,10.6,30.24,WNW,291,0.0,0.0,92,0.00,,---,0.00,0.00,VWS V14.00,2013-01-03 08:30:00,
2013-01-03 03:34:00,12.3,10.4,30.24,WNW,291,0.0,0.0,92,0.00,,---,0.00,0.00,VWS V14.00,2013-01-03 08:34:00,
2013-01-03 03:39:00,12.1,10.2,30.23,WNW,291,0.0,0.0,92,0.00,,---,0.00,0.00,VWS V14.00,2013-01-03 08:39:00,
2013-01-03 03:44:00,11.9,10.0,30.23,WNW,291,0.0,1.0,92,0.00,,---,0.00,0.00,VWS V14.00,2013-01-03 08:44:00,
2013-01-03 03:49:00,11.9,10.0,30.23,WNW,291,0.0,1.0,92,0.00,,---,0.00,0.00,VWS V14.00,2013-01-03 08:49:00,
2013-01-03 03:54:00,11.9,10.3,30.23,WNW,291,0.0,1.0,93,0.00,,---,0.00,0.00,VWS V14.00,2013-01-03 08:54:00,
2013-01-03 03:59:00,11.9,10.3,30.24,WNW,291,0.0,1.0,93,0.00,,---,0.00,0.00,VWS V14.00,2013-01-03 08:59:00,
2013-01-03 04:00:00,11.8,9.9,30.24,WNW,291,0.0,1.0,92,0.00,,---,0.00,0.00,VWS V14.00,2013-01-03 09:00:00,
2013-01-03 04:04:00,11.7,9.8,30.24,WNW,291,0.0,0.0,92,0.00,,---,0.00,0.00,VWS V14.00,2013-01-03 09:04:00,
2013-01-03 04:09:00,11.6,9.7,30.24,WNW,291,0.0,0.0,92,0.00,,---,0.00,0.00,VWS V14.00,2013-01-03 09:09:00,
2013-01-03 04:14:00,11.5,9.6,30.24,WNW,291,0.0,0.0,92,0.00,,---,0.00,0.00,VWS V14.00,2013-01-03 09:14:00,
2013-01-03 04:19:00,11.3,9.4,30.23,WNW,291,0.0,0.0,92,0.00,,---,0.00,0.00,VWS V14.00,2013-01-03 09:19:00,
2013-01-03 04:24:00,11.0,9.1,30.24,WNW,291,0.0,0.0,92,0.00,,---,0.00,0.00,VWS V14.00,2013-01-03 09:24:00,
2013-01-03 04:29:00,10.8,8.7,30.24,WNW,291,0.0,0.0,91,0.00,,---,0.00,0.00,VWS V14.00,2013-01-03 09:29:00,
2013-01-03 04:30:00,10.7,8.6,30.24,WNW,291,0.0,0.0,91,0.00,,---,0.00,0.00,VWS V14.00,2013-01-03 09:30:00,
2013-01-03 04:35:00,10.5,8.4,30.24,WNW,291,0.0,0.0,91,0.00,,---,0.00,0.00,VWS V14.00,2013-01-03 09:35:00,
2013-01-03 04:40:00,10.5,8.6,30.23,WNW,291,0.0,0.0,92,0.00,,---,0.00,0.00,VWS V14.00,2013-01-03 09:40:00,
2013-01-03 04:45:00,10.5,8.6,30.23,WNW,291,0.0,0.0,92,0.00,,---,0.00,0.00,VWS V14.00,2013-01-03 09:45:00,
2013-01-03 04:50:00,10.5,8.6,30.24,WNW,291,0.0,0.0,92,0.00,,---,0.00,0.00,VWS V14.00,2013-01-03 09:50:00,
2013-01-03 04:55:00,10.4,8.5,30.24,WNW,291,0.0,0.0,92,0.00,,---,0.00,0.00,VWS V14.00,2013-01-03 09:55:00,
2013-01-03 05:00:00,10.4,8.5,30.25,WNW,291,0.0,0.0,92,0.00,,---,0.00,0.00,VWS V14.00,2013-01-03 10:00:00,
2013-01-03 05:05:00,10.3,8.4,30.24,WNW,291,0.0,0.0,92,0.00,,---,0.00,0.00,VWS V14.00,2013-01-03 10:05:00,
2013-01-03 05:10:00,10.2,8.3,30.24,WNW,291,0.0,0.0,92,0.00,,---,0.00,0.00,VWS V14.00,2013-01-03 10:10:00,
2013-01-03 05:15:00,10.3,8.4,30.24,WNW,291,0.0,0.0,92,0.00,,---,0.00,0.00,VWS V14.00,2013-01-03 10:15:00,
2013-01-03 05:20:00,10.3,8.4,30.24,WNW,291,0.0,0.0,92,0.00,,---,0.00,0.00,VWS V14.00,2013-01-03 10:20:00,
2013-01-03 05:25:00,10.1,8.2,30.23,WNW,291,0.0,0.0,92,0.00,,---,0.00,0.00,VWS V14.00,2013-01-03 10:25:00,
2013-01-03 05:30:00,10.0,7.9,30.24,WNW,291,0.0,0.0,91,0.00,,---,0.00,0.00,VWS V14.00,2013-01-03 10:30:00,
2013-01-03 05:35:00,9.9,8.1,30.24,WNW,291,0.0,0.0,92,0.00,,---,0.00,0.00,VWS V14.00,2013-01-03 10:35:00,
2013-01-03 05:40:00,9.7,7.6,30.23,WNW,291,0.0,0.0,91,0.00,,---,0.00,0.00,VWS V14.00,2013-01-03 10:40:00,
2013-01-03 05:45:00,9.5,7.4,30.24,WNW,291,0.0,0.0,91,0.00,,---,0.00,0.00,VWS V14.00,2013-01-03 10:45:00,
2013-01-03 05:50:00,9.4,7.3,30.24,WNW,291,0.0,0.0,91,0.00,,---,0.00,0.00,VWS V14.00,2013-01-03 10:50:00,
2013-01-03 05:55:00,9.2,7.1,30.24,WNW,291,0.0,0.0,91,0.00,,---,0.00,0.00,VWS V14.00,2013-01-03 10:55:00,
2013-01-03 06:00:00,9.0,6.9,30.24,WNW,291,0.0,0.0,91,0.00,,---,0.00,0.00,VWS V14.00,2013-01-03 11:00:00,
2013-01-03 06:05:00,8.9,6.8,30.24,WNW,291,0.0,0.0,91,0.00,,---,0.00,0.00,VWS V14.00,2013-01-03 11:05:00,
2013-01-03 06:10:00,8.8,6.7,30.24,WNW,291,0.0,0.0,91,0.00,,---,0.00,0.00,VWS V14.00,2013-01-03 11:10:00,
2013-01-03 06:15:00,8.7,6.6,30.24,WNW,291,0.0,0.0,91,0.00,,---,0.00,0.00,VWS V14.00,2013-01-03 11:15:00,
2013-01-03 06:20:00,8.8,6.7,30.24,WNW,291,0.0,0.0,91,0.00,,---,0.00,0.00,VWS V14.00,2013-01-03 11:20:00,
2013-01-03 06:25:00,8.9,7.1,30.24,WNW,291,0.0,0.0,92,0.00,,---,0.00,0.00,VWS V14.00,2013-01-03 11:25:00,
2013-01-03 06:30:00,9.0,7.2,30.24,WNW,291,0.0,0.0,92,0.00,,---,0.00,0.00,VWS V14.00,2013-01-03 11:30:00,
2013-01-03 06:35:00,8.9,6.8,30.24,WNW,291,0.0,0.0,91,0.00,,---,0.00,0.00,VWS V14.00,2013-01-03 11:35:00,
2013-01-03 06:40:00,8.9,7.1,30.25,WNW,291,0.0,0.0,92,0.00,,---,0.00,0.00,VWS V14.00,2013-01-03 11:40:00,
2013-01-03 06:45:00,8.8,6.7,30.25,WNW,291,0.0,0.0,91,0.00,,---,0.00,0.00,VWS V14.00,2013-01-03 11:45:00,
2013-01-03 06:51:00,8.7,6.6,30.25,WNW,291,0.0,0.0,91,0.00,,---,0.00,0.00,VWS V14.00,2013-01-03 11:51:00,
2013-01-03 06:56:00,8.6,6.5,30.25,WNW,291,0.0,0.0,91,0.00,,---,0.00,0.00,VWS V14.00,2013-01-03 11:56:00,
2013-01-03 07:00:00,8.5,6.4,30.25,WNW,291,0.0,0.0,91,0.00,,---,0.00,0.00,VWS V14.00,2013-01-03 12:00:00,
2013-01-03 07:01:00,8.5,6.4,30.25,WNW,291,0.0,0.0,91,0.00,,---,0.00,0.00,VWS V14.00,2013-01-03 12:01:00,
2013-01-03 07:06:00,8.6,6.8,30.25,WNW,291,0.0,0.0,92,0.00,,---,0.00,0.00,VWS V14.00,2013-01-03 12:06:00,
2013-01-03 07:11:00,8.7,6.9,30.26,WNW,291,0.0,0.0,92,0.00,,---,0.00,0.00,VWS V14.00,2013-01-03 12:11:00,
2013-01-03 07:16:00,8.6,6.5,30.26,WNW,291,0.0,0.0,91,0.00,,---,0.00,0.00,VWS V14.00,2013-01-03 12:16:00,
2013-01-03 07:21:00,8.3,6.0,30.25,WNW,291,0.0,0.0,90,0.00,,---,0.00,0.00,VWS V14.00,2013-01-03 12:21:00,
2013-01-03 07:26:00,8.1,5.8,30.25,WNW,291,0.0,0.0,90,0.00,,---,0.00,0.00,VWS V14.00,2013-01-03 12:26:00,
2013-01-03 07:30:00,7.9,5.6,30.26,WNW,291,0.0,0.0,90,0.00,,---,0.00,0.00,VWS V14.00,2013-01-03 12:30:00,
2013-01-03 07:31:00,7.9,5.6,30.26,WNW,291,0.0,0.0,90,0.00,,---,0.00,0.00,VWS V14.00,2013-01-03 12:31:00,
2013-01-03 07:36:00,7.6,5.3,30.26,WNW,291,0.0,0.0,90,0.00,,---,0.00,0.00,VWS V14.00,2013-01-03 12:36:00,
2013-01-03 07:41:00,7.2,4.9,30.26,WNW,291,0.0,0.0,90,0.00,,---,0.00,0.00,VWS V14.00,2013-01-03 12:41:00,
2013-01-03 07:46:00,7.3,5.2,30.26,WNW,291,0.0,0.0,91,0.00,,---,0.00,0.00,VWS V14.00,2013-01-03 12:46:00,
2013-01-03 07:51:00,7.4,5.3,30.26,WNW,291,0.0,0.0,91,0.00,,---,0.00,7.00,VWS V14.00,2013-01-03 12:51:00,
2013-01-03 07:56:00,7.5,5.4,30.26,WNW,291,0.0,0.0,91,0.00,,---,0.00,11.00,VWS V14.00,2013-01-03 12:56:00,
2013-01-03 08:00:00,7.3,5.0,30.25,WNW,291,0.0,0.0,90,0.00,,---,0.00,12.00,VWS V14.00,2013-01-03 13:00:00,
2013-01-03 08:01:00,7.3,5.0,30.25,WNW,291,0.0,0.0,90,0.00,,---,0.00,12.00,VWS V14.00,2013-01-03 13:01:00,
2013-01-03 08:06:00,7.2,4.9,30.25,WNW,291,0.0,0.0,90,0.00,,---,0.00,14.00,VWS V14.00,2013-01-03 13:06:00,
2013-01-03 08:11:00,7.1,4.8,30.25,WNW,291,0.0,0.0,90,0.00,,---,0.00,14.00,VWS V14.00,2013-01-03 13:11:00,
2013-01-03 08:16:00,7.0,4.7,30.25,WNW,291,0.0,0.0,90,0.00,,---,0.00,16.00,VWS V14.00,2013-01-03 13:16:00,
2013-01-03 08:21:00,7.1,5.0,30.26,WNW,291,0.0,1.0,91,0.00,,---,0.00,16.00,VWS V14.00,2013-01-03 13:21:00,
2013-01-03 08:26:00,7.3,5.2,30.26,WNW,291,0.0,1.0,91,0.00,,---,0.00,19.00,VWS V14.00,2013-01-03 13:26:00,
2013-01-03 08:30:00,7.4,5.3,30.26,WNW,291,0.0,1.0,91,0.00,,---,0.00,18.00,VWS V14.00,2013-01-03 13:30:00,
2013-01-03 08:31:00,7.4,5.3,30.26,WNW,291,0.0,0.0,91,0.00,,---,0.00,18.00,VWS V14.00,2013-01-03 13:31:00,
2013-01-03 08:36:00,7.5,5.4,30.26,WNW,291,0.0,0.0,91,0.00,,---,0.00,21.00,VWS V14.00,2013-01-03 13:36:00,
2013-01-03 08:41:00,7.5,5.4,30.26,WNW,291,0.0,0.0,91,0.00,,---,0.00,37.00,VWS V14.00,2013-01-03 13:41:00,
2013-01-03 08:46:00,7.7,5.6,30.27,WNW,291,0.0,0.0,91,0.00,,---,0.00,51.00,VWS V14.00,2013-01-03 13:46:00,
2013-01-03 08:51:00,8.0,6.2,30.27,WNW,291,0.0,0.0,92,0.00,,---,0.00,100.00,VWS V14.00,2013-01-03 13:51:00,
2013-01-03 08:56:00,8.6,7.0,30.27,WNW,291,0.0,0.0,93,0.00,,---,0.00,134.00,VWS V14.00,2013-01-03 13:56:00,
2013-01-03 09:00:00,9.2,7.6,30.27,WNW,291,0.0,0.0,93,0.00,,---,0.00,141.00,VWS V14.00,2013-01-03 14:00:00,
2013-01-03 09:01:00,9.3,7.7,30.27,WNW,291,0.0,0.0,93,0.00,,---,0.00,146.00,VWS V14.00,2013-01-03 14:01:00,
2013-01-03 09:06:00,9.6,7.8,30.27,WNW,291,0.0,0.0,92,0.00,,---,0.00,153.00,VWS V14.00,2013-01-03 14:06:00,
2013-01-03 09:11:00,9.9,8.1,30.27,WNW,291,0.0,1.0,92,0.00,,---,0.00,174.00,VWS V14.00,2013-01-03 14:11:00,
2013-01-03 09:16:00,10.4,8.5,30.28,WNW,291,0.0,1.0,92,0.00,,---,0.00,186.00,VWS V14.00,2013-01-03 14:16:00,
2013-01-03 09:21:00,10.6,8.5,30.28,WNW,291,0.0,1.0,91,0.00,,---,0.00,200.00,VWS V14.00,2013-01-03 14:21:00,
2013-01-03 09:26:00,11.0,9.1,30.28,WNW,291,0.0,1.0,92,0.00,,---,0.00,221.00,VWS V14.00,2013-01-03 14:26:00,
2013-01-03 09:30:00,11.3,9.4,30.27,WNW,291,0.0,1.0,92,0.00,,---,0.00,236.00,VWS V14.00,2013-01-03 14:30:00,
2013-01-03 09:31:00,11.4,9.5,30.27,WNW,291,0.0,0.0,92,0.00,,---,0.00,239.00,VWS V14.00,2013-01-03 14:31:00,
2013-01-03 09:36:00,11.8,9.9,30.27,WNW,291,0.0,0.0,92,0.00,,---,0.00,253.00,VWS V14.00,2013-01-03 14:36:00,
2013-01-03 09:41:00,12.3,10.4,30.28,WNW,291,0.0,0.0,92,0.00,,---,0.00,262.00,VWS V14.00,2013-01-03 14:41:00,
2013-01-03 09:46:00,13.0,11.1,30.27,WNW,291,0.0,0.0,92,0.00,,---,0.00,246.00,VWS V14.00,2013-01-03 14:46:00,
2013-01-03 09:51:00,13.7,11.8,30.27,WNW,291,0.0,0.0,92,0.00,,---,0.00,285.00,VWS V14.00,2013-01-03 14:51:00,
2013-01-03 09:56:00,14.4,12.5,30.28,WNW,291,0.0,0.0,92,0.00,,---,0.00,295.00,VWS V14.00,2013-01-03 14:56:00,
2013-01-03 10:00:00,14.9,13.0,30.27,WNW,291,0.0,0.0,92,0.00,,---,0.00,304.00,VWS V14.00,2013-01-03 15:00:00,
2013-01-03 10:02:00,14.9,13.0,30.27,WNW,291,0.0,0.0,92,0.00,,---,0.00,308.00,VWS V14.00,2013-01-03 15:02:00,
2013-01-03 10:07:00,15.5,13.6,30.27,WNW,291,0.0,0.0,92,0.00,,---,0.00,318.00,VWS V14.00,2013-01-03 15:07:00,
2013-01-03 10:12:00,16.1,14.2,30.28,WNW,291,0.0,0.0,92,0.00,,---,0.00,336.00,VWS V14.00,2013-01-03 15:12:00,
2013-01-03 10:17:00,16.9,15.0,30.27,WNW,291,0.0,0.0,92,0.00,,---,0.00,360.00,VWS V14.00,2013-01-03 15:17:00,
2013-01-03 10:22:00,18.0,16.3,30.27,WNW,291,0.0,0.0,93,0.00,,---,0.00,376.00,VWS V14.00,2013-01-03 15:22:00,
2013-01-03 10:27:00,19.0,17.3,30.27,WNW,291,0.0,0.0,93,0.00,,---,0.00,374.00,VWS V14.00,2013-01-03 15:27:00,
2013-01-03 10:30:00,20.2,18.5,30.28,WNW,291,0.0,0.0,93,0.00,,---,0.00,385.00,VWS V14.00,2013-01-03 15:30:00,
2013-01-03 10:32:00,20.4,18.7,30.28,WNW,291,0.0,0.0,93,0.00,,---,0.00,387.00,VWS V14.00,2013-01-03 15:32:00,
2013-01-03 10:37:00,21.2,19.2,30.28,WNW,291,0.0,0.0,92,0.00,,---,0.00,392.00,VWS V14.00,2013-01-03 15:37:00,
2013-01-03 10:42:00,22.1,19.9,30.27,WNW,291,0.0,0.0,91,0.00,,---,0.00,404.00,VWS V14.00,2013-01-03 15:42:00,
2013-01-03 10:47:00,23.5,21.3,30.27,WNW,291,0.0,0.0,91,0.00,,---,0.01,413.00,VWS V14.00,2013-01-03 15:47:00,
2013-01-03 10:52:00,24.7,21.7,30.26,WNW,291,0.0,1.0,88,0.00,,---,0.01,422.00,VWS V14.00,2013-01-03 15:52:00,
2013-01-03 10:57:00,25.8,21.9,30.26,WNW,291,0.0,2.0,85,0.00,,---,0.01,429.00,VWS V14.00,2013-01-03 15:57:00,
2013-01-03 11:00:00,25.9,21.5,30.26,WNW,291,0.0,2.0,83,0.04,,---,0.02,434.00,VWS V14.00,2013-01-03 16:00:00,
2013-01-03 11:02:00,25.9,21.5,30.26,WNW,291,0.0,1.0,83,0.04,,---,0.02,434.00,VWS V14.00,2013-01-03 16:02:00,
2013-01-03 11:07:00,25.7,21.0,30.26,West,272,1.0,5.0,82,0.04,,---,0.02,441.00,VWS V14.00,2013-01-03 16:07:00,
2013-01-03 11:12:00,26.1,21.4,30.25,West,263,0.0,5.0,82,0.04,,---,0.02,448.00,VWS V14.00,2013-01-03 16:12:00,
2013-01-03 11:17:00,27.0,21.7,30.25,WSW,257,0.0,5.0,80,0.00,,---,0.02,454.00,VWS V14.00,2013-01-03 16:17:00,
2013-01-03 11:22:00,27.7,21.8,30.24,SE,142,0.0,5.0,78,0.00,,---,0.02,461.00,VWS V14.00,2013-01-03 16:22:00,
2013-01-03 11:27:00,28.4,21.5,30.24,WSW,244,4.0,5.0,75,0.00,,---,0.02,464.00,VWS V14.00,2013-01-03 16:27:00,
2013-01-03 11:30:00,28.7,21.8,30.24,WSW,257,0.0,5.0,75,0.00,,---,0.02,469.00,VWS V14.00,2013-01-03 16:30:00,
2013-01-03 11:32:00,28.9,21.7,30.24,West,261,2.0,4.0,74,0.00,,---,0.03,469.00,VWS V14.00,2013-01-03 16:32:00,
2013-01-03 11:37:00,29.3,21.7,30.23,West,274,5.0,5.0,73,0.00,,---,0.03,475.00,VWS V14.00,2013-01-03 16:37:00,
2013-01-03 11:42:00,29.5,21.6,30.23,South,174,1.0,7.0,72,0.06,,---,0.04,478.00,VWS V14.00,2013-01-03 16:42:00,
2013-01-03 11:47:00,29.8,21.9,30.23,West,265,2.0,7.0,72,0.06,,---,0.04,482.00,VWS V14.00,2013-01-03 16:47:00,
2013-01-03 11:52:00,30.0,22.1,30.23,SSW,192,0.0,8.0,72,0.05,,---,0.04,487.00,VWS V14.00,2013-01-03 16:52:00,
2013-01-03 11:57:00,30.6,22.3,30.23,South,188,3.0,8.0,71,0.04,,---,0.04,490.00,VWS V14.00,2013-01-03 16:57:00,
2013-01-03 12:00:00,30.7,21.8,30.23,WSW,238,1.0,8.0,69,0.00,,---,0.05,492.00,VWS V14.00,2013-01-03 17:00:00,
2013-01-03 12:02:00,30.8,22.2,30.23,WSW,256,3.0,5.0,70,0.00,,---,0.05,492.00,VWS V14.00,2013-01-03 17:02:00,
2013-01-03 12:07:00,31.1,22.1,30.22,South,179,0.0,6.0,69,0.00,,---,0.05,496.00,VWS V14.00,2013-01-03 17:07:00,
2013-01-03 12:12:00,31.0,22.0,30.21,West,265,4.0,8.0,69,0.06,,---,0.06,496.00,VWS V14.00,2013-01-03 17:12:00,
2013-01-03 12:17:00,30.9,21.9,30.21,NW,310,4.0,8.0,69,0.06,,---,0.06,497.00,VWS V14.00,2013-01-03 17:17:00,
2013-01-03 12:22:00,30.7,21.8,30.20,West,265,5.0,10.0,69,0.05,,---,0.06,501.00,VWS V14.00,2013-01-03 17:22:00,
2013-01-03 12:27:00,30.7,21.8,30.20,West,271,9.0,10.0,69,0.00,,---,0.07,499.00,VWS V14.00,2013-01-03 17:27:00,
2013-01-03 12:30:00,30.9,22.3,30.20,West,265,1.0,10.0,70,0.00,,---,0.07,497.00,VWS V14.00,2013-01-03 17:30:00,
2013-01-03 12:32:00,31.1,22.5,30.20,South,182,2.0,5.0,70,0.00,,---,0.07,497.00,VWS V14.00,2013-01-03 17:32:00,
2013-01-03 12:37:00,31.7,22.4,30.19,SSW,203,0.0,9.0,68,0.08,,---,0.08,497.00,VWS V14.00,2013-01-03 17:37:00,
2013-01-03 12:42:00,32.2,22.5,30.19,West,267,5.0,9.0,67,0.08,,---,0.08,499.00,VWS V14.00,2013-01-03 17:42:00,
2013-01-03 12:47:00,32.0,22.3,30.19,WSW,245,3.0,9.0,67,0.05,,---,0.08,497.00,VWS V14.00,2013-01-03 17:47:00,
2013-01-03 12:53:00,32.0,22.3,30.19,West,262,5.0,11.0,67,0.04,,---,0.09,494.00,VWS V14.00,2013-01-03 17:53:00,
2013-01-03 12:58:00,32.0,22.3,30.19,West,263,2.0,12.0,67,0.04,,---,0.09,496.00,VWS V14.00,2013-01-03 17:58:00,
2013-01-03 13:00:00,32.1,22.0,30.19,SW,233,2.0,12.0,66,0.04,,---,0.09,492.00,VWS V14.00,2013-01-03 18:00:00,
2013-01-03 13:03:00,32.2,22.5,30.19,WSW,255,1.0,3.0,67,0.04,,---,0.10,492.00,VWS V14.00,2013-01-03 18:03:00,
2013-01-03 13:08:00,32.6,23.2,30.19,South,179,2.0,9.0,68,0.05,,---,0.10,487.00,VWS V14.00,2013-01-03 18:08:00,
2013-01-03 13:13:00,32.9,22.8,30.19,WSW,237,0.0,9.0,66,0.05,,---,0.10,482.00,VWS V14.00,2013-01-03 18:13:00,
2013-01-03 13:18:00,33.2,23.1,30.19,West,263,8.0,9.0,66,0.04,,---,0.10,478.00,VWS V14.00,2013-01-03 18:18:00,
2013-01-03 13:23:00,32.8,22.3,30.19,West,264,4.0,13.0,65,0.00,,---,0.11,471.00,VWS V14.00,2013-01-03 18:23:00,
2013-01-03 13:28:00,32.8,22.7,30.19,West,272,8.0,13.0,66,0.00,,---,0.11,468.00,VWS V14.00,2013-01-03 18:28:00,
2013-01-03 13:30:00,33.0,22.9,30.18,WSW,250,4.0,13.0,66,0.00,,---,0.11,466.00,VWS V14.00,2013-01-03 18:30:00,
2013-01-03 13:33:00,33.1,23.0,30.18,West,259,8.0,8.0,66,0.00,,---,0.11,464.00,VWS V14.00,2013-01-03 18:33:00,
2013-01-03 13:38:00,33.2,22.7,30.18,SSE,153,9.0,10.0,65,0.05,,---,0.12,455.00,VWS V14.00,2013-01-03 18:38:00,
2013-01-03 13:43:00,33.4,23.3,30.18,WSW,238,6.0,10.0,66,0.05,,---,0.12,454.00,VWS V14.00,2013-01-03 18:43:00,
2013-01-03 13:48:00,33.5,23.4,30.18,West,267,3.0,10.0,66,0.04,,---,0.12,445.00,VWS V14.00,2013-01-03 18:48:00,
2013-01-03 13:53:00,33.7,23.6,30.17,West,270,7.0,10.0,66,0.00,,---,0.12,436.00,VWS V14.00,2013-01-03 18:53:00,
2013-01-03 13:58:00,34.0,23.5,30.17,West,266,5.0,10.0,65,0.00,,---,0.12,427.00,VWS V14.00,2013-01-03 18:58:00,
2013-01-03 14:00:00,34.0,23.1,30.17,SW,226,3.0,10.0,64,0.00,,---,0.13,420.00,VWS V14.00,2013-01-03 19:00:00,
2013-01-03 14:03:00,34.1,23.2,30.17,West,263,2.0,10.0,64,0.00,,---,0.13,371.00,VWS V14.00,2013-01-03 19:03:00,
2013-01-03 14:08:00,34.1,22.8,30.17,WSW,242,4.0,12.0,63,0.00,,---,0.13,79.00,VWS V14.00,2013-01-03 19:08:00,
2013-01-03 14:13:00,34.0,23.1,30.17,West,271,5.0,12.0,64,0.00,,---,0.13,49.00,VWS V14.00,2013-01-03 19:13:00,
2013-01-03 14:18:00,34.2,23.3,30.17,WSW,249,3.0,12.0,64,0.00,,---,0.13,72.00,VWS V14.00,2013-01-03 19:18:00,
2013-01-03 14:30:00,34.4,23.1,30.17,WSW,240,5.0,16.0,63,0.00,,---,0.14,376.00,VWS V14.00,2013-01-03 19:30:00,
2013-01-03 14:55:00,34.8,23.5,30.17,West,263,3.0,15.0,63,0.00,,---,0.14,323.00,VWS V14.00,2013-01-03 19:55:00,
2013-01-03 15:00:00,34.9,23.6,30.17,SW,226,3.0,15.0,63,0.00,,---,0.14,285.00,VWS V14.00,2013-01-03 20:00:00,
2013-01-03 15:05:00,35.0,23.3,30.17,WSW,248,3.0,14.0,62,0.00,,---,0.15,237.00,VWS V14.00,2013-01-03 20:05:00,
2013-01-03 15:10:00,34.9,23.2,30.17,WSW,242,5.0,15.0,62,0.00,,---,0.15,218.00,VWS V14.00,2013-01-03 20:10:00,
2013-01-03 15:15:00,34.8,23.1,30.17,West,265,8.0,15.0,62,0.00,,---,0.15,160.00,VWS V14.00,2013-01-03 20:15:00,
2013-01-03 15:20:00,34.6,23.3,30.18,SW,232,0.0,15.0,63,0.00,,---,0.15,77.00,VWS V14.00,2013-01-03 20:20:00,
2013-01-03 15:25:00,34.7,23.4,30.18,SW,229,5.0,15.0,63,0.00,,---,0.15,54.00,VWS V14.00,2013-01-03 20:25:00,
2013-01-03 15:30:00,34.5,23.2,30.18,West,266,10.0,15.0,63,0.00,,---,0.16,63.00,VWS V14.00,2013-01-03 20:30:00,
2013-01-03 15:35:00,34.3,23.0,30.18,West,265,5.0,12.0,63,0.00,,---,0.16,39.00,VWS V14.00,2013-01-03 20:35:00,
2013-01-03 15:40:00,34.2,22.9,30.18,WSW,250,5.0,12.0,63,0.00,,---,0.16,37.00,VWS V14.00,2013-01-03 20:40:00,
2013-01-03 15:45:00,34.2,23.3,30.18,West,260,7.0,13.0,64,0.00,,---,0.16,35.00,VWS V14.00,2013-01-03 20:45:00,
2013-01-03 15:50:00,34.2,22.9,30.18,WSW,244,5.0,14.0,63,0.00,,---,0.16,35.00,VWS V14.00,2013-01-03 20:50:00,
2013-01-03 15:55:00,34.1,22.8,30.18,WSW,252,2.0,14.0,63,0.00,,---,0.16,33.00,VWS V14.00,2013-01-03 20:55:00,
2013-01-03 16:00:00,34.2,22.9,30.18,SW,236,5.0,14.0,63,0.00,,---,0.16,32.00,VWS V14.00,2013-01-03 21:00:00,
2013-01-03 16:01:00,34.2,22.9,30.18,West,259,5.0,14.0,63,0.00,,---,0.16,33.00,VWS V14.00,2013-01-03 21:01:00,
2013-01-03 16:06:00,34.4,23.1,30.18,WSW,258,5.0,11.0,63,0.00,,---,0.16,32.00,VWS V14.00,2013-01-03 21:06:00,
2013-01-03 16:11:00,34.4,22.7,30.18,WSW,256,7.0,11.0,62,0.00,,---,0.16,30.00,VWS V14.00,2013-01-03 21:11:00,
2013-01-03 16:16:00,34.4,22.7,30.18,West,264,2.0,11.0,62,0.00,,---,0.16,28.00,VWS V14.00,2013-01-03 21:16:00,
2013-01-03 16:21:00,34.1,22.8,30.18,WSW,251,1.0,12.0,63,0.00,,---,0.16,26.00,VWS V14.00,2013-01-03 21:21:00,
2013-01-03 16:26:00,33.9,22.6,30.19,WSW,249,1.0,12.0,63,0.00,,---,0.16,25.00,VWS V14.00,2013-01-03 21:26:00,
2013-01-03 16:30:00,33.7,22.5,30.19,WSW,248,6.0,12.0,63,0.00,,---,0.16,23.00,VWS V14.00,2013-01-03 21:30:00,
2013-01-03 16:31:00,33.8,22.5,30.19,West,272,9.0,12.0,63,0.00,,---,0.16,23.00,VWS V14.00,2013-01-03 21:31:00,
2013-01-03 16:36:00,33.7,22.5,30.19,SW,232,3.0,7.0,63,0.00,,---,0.16,25.00,VWS V14.00,2013-01-03 21:36:00,
2013-01-03 16:41:00,33.7,22.5,30.19,WSW,258,3.0,7.0,63,0.00,,---,0.16,19.00,VWS V14.00,2013-01-03 21:41:00,
2013-01-03 16:46:00,33.4,22.5,30.19,West,267,3.0,10.0,64,0.00,,---,0.16,16.00,VWS V14.00,2013-01-03 21:46:00,
2013-01-03 16:51:00,33.1,22.3,30.20,West,264,3.0,10.0,64,0.00,,---,0.16,14.00,VWS V14.00,2013-01-03 21:51:00,
2013-01-03 16:56:00,32.9,22.4,30.19,WSW,254,5.0,10.0,65,0.00,,---,0.16,11.00,VWS V14.00,2013-01-03 21:56:00,
2013-01-03 17:00:00,32.8,22.3,30.19,West,265,3.0,10.0,65,0.00,,---,0.16,9.00,VWS V14.00,2013-01-03 22:00:00,
2013-01-03 17:01:00,32.8,22.3,30.19,West,265,3.0,10.0,65,0.00,,---,0.16,9.00,VWS V14.00,2013-01-03 22:01:00,
2013-01-03 17:06:00,32.6,22.1,30.19,WSW,256,2.0,8.0,65,0.00,,---,0.16,5.00,VWS V14.00,2013-01-03 22:06:00,
2013-01-03 17:11:00,32.4,22.3,30.20,WSW,255,0.0,8.0,66,0.00,,---,0.16,0.00,VWS V14.00,2013-01-03 22:11:00,
2013-01-03 17:16:00,32.2,22.1,30.20,WSW,251,4.0,8.0,66,0.00,,---,0.16,0.00,VWS V14.00,2013-01-03 22:16:00,
2013-01-03 17:21:00,32.1,22.0,30.21,WSW,243,3.0,8.0,66,0.00,,---,0.16,0.00,VWS V14.00,2013-01-03 22:21:00,
2013-01-03 17:26:00,32.0,21.9,30.21,WSW,249,3.0,8.0,66,0.00,,---,0.16,0.00,VWS V14.00,2013-01-03 22:26:00,
2013-01-03 17:30:00,31.8,22.1,30.20,WSW,252,2.0,8.0,67,0.00,,---,0.16,0.00,VWS V14.00,2013-01-03 22:30:00,
2013-01-03 17:31:00,31.8,22.1,30.21,WSW,252,1.0,2.0,67,0.00,,---,0.16,0.00,VWS V14.00,2013-01-03 22:31:00,
2013-01-03 17:36:00,31.6,21.9,30.21,WSW,250,2.0,3.0,67,0.00,,---,0.16,0.00,VWS V14.00,2013-01-03 22:36:00,
2013-01-03 17:41:00,31.4,21.7,30.20,WSW,254,1.0,5.0,67,0.00,,---,0.16,0.00,VWS V14.00,2013-01-03 22:41:00,
2013-01-03 17:46:00,31.3,22.0,30.20,West,265,2.0,6.0,68,0.00,,---,0.16,0.00,VWS V14.00,2013-01-03 22:46:00,
2013-01-03 17:51:00,31.4,21.7,30.21,WSW,252,1.0,6.0,67,0.00,,---,0.16,0.00,VWS V14.00,2013-01-03 22:51:00,
2013-01-03 17:56:00,31.2,21.5,30.21,West,263,0.0,7.0,67,0.00,,---,0.16,0.00,VWS V14.00,2013-01-03 22:56:00,
2013-01-03 18:00:00,31.0,21.3,30.21,West,265,0.0,7.0,67,0.00,,---,0.16,0.00,VWS V14.00,2013-01-03 23:00:00,
2013-01-03 18:01:00,31.0,21.3,30.22,West,265,0.0,0.0,67,0.00,,---,0.16,0.00,VWS V14.00,2013-01-03 23:01:00,
2013-01-03 18:06:00,30.8,21.5,30.22,West,265,1.0,3.0,68,0.00,,---,0.16,0.00,VWS V14.00,2013-01-03 23:06:00,
2013-01-03 18:11:00,30.7,21.4,30.22,West,265,0.0,3.0,68,0.00,,---,0.16,0.00,VWS V14.00,2013-01-03 23:11:00,
2013-01-03 18:16:00,30.5,21.6,30.22,West,265,0.0,3.0,69,0.00,,---,0.16,0.00,VWS V14.00,2013-01-03 23:16:00,
2013-01-03 18:21:00,30.3,21.7,30.22,West,265,0.0,3.0,70,0.00,,---,0.16,0.00,VWS V14.00,2013-01-03 23:21:00,
2013-01-03 18:26:00,30.2,21.9,30.22,West,265,0.0,3.0,71,0.00,,---,0.16,0.00,VWS V14.00,2013-01-03 23:26:00,
2013-01-03 18:30:00,30.5,21.9,30.22,West,265,0.0,3.0,70,0.00,,---,0.16,0.00,VWS V14.00,2013-01-03 23:30:00,
2013-01-03 18:31:00,30.5,21.9,30.22,West,265,2.0,2.0,70,0.00,,---,0.16,0.00,VWS V14.00,2013-01-03 23:31:00,
2013-01-03 18:36:00,30.7,22.1,30.22,West,263,1.0,3.0,70,0.00,,---,0.16,0.00,VWS V14.00,2013-01-03 23:36:00,
2013-01-03 18:41:00,30.9,22.3,30.22,WSW,252,2.0,3.0,70,0.00,,---,0.16,0.00,VWS V14.00,2013-01-03 23:41:00,
2013-01-03 18:46:00,31.1,22.5,30.23,West,271,2.0,4.0,70,0.00,,---,0.16,0.00,VWS V14.00,2013-01-03 23:46:00,
2013-01-03 18:51:00,31.2,22.6,30.23,WSW,254,2.0,4.0,70,0.00,,---,0.16,0.00,VWS V14.00,2013-01-03 23:51:00,
2013-01-03 18:56:00,31.3,22.7,30.24,WSW,257,6.0,7.0,70,0.00,,---,0.16,0.00,VWS V14.00,2013-01-03 23:56:00,
2013-01-03 19:00:00,31.7,22.7,30.24,WSW,254,4.0,10.0,69,0.00,,---,0.16,0.00,VWS V14.00,2013-01-04 00:00:00,
2013-01-03 19:01:00,31.7,22.7,30.24,WSW,245,1.0,4.0,69,0.00,,---,0.16,0.00,VWS V14.00,2013-01-04 00:01:00,
2013-01-03 19:06:00,31.8,22.8,30.24,WSW,244,4.0,11.0,69,0.00,,---,0.16,0.00,VWS V14.00,2013-01-04 00:06:00,
2013-01-03 19:11:00,31.9,22.5,30.24,West,274,6.0,12.0,68,0.00,,---,0.16,0.00,VWS V14.00,2013-01-04 00:11:00,
2013-01-03 19:16:00,32.0,22.6,30.24,West,269,5.0,14.0,68,0.00,,---,0.16,0.00,VWS V14.00,2013-01-04 00:16:00,
2013-01-03 19:21:00,31.9,22.5,30.24,West,271,7.0,14.0,68,0.00,,---,0.16,0.00,VWS V14.00,2013-01-04 00:21:00,
2013-01-03 19:26:00,31.9,22.2,30.23,West,271,6.0,14.0,67,0.00,,---,0.16,0.00,VWS V14.00,2013-01-04 00:26:00,
2013-01-03 19:30:00,31.9,22.2,30.24,West,277,5.0,18.0,67,0.00,,---,0.16,0.00,VWS V14.00,2013-01-04 00:30:00,
2013-01-03 19:31:00,31.9,22.5,30.24,West,268,4.0,7.0,68,0.00,,---,0.16,0.00,VWS V14.00,2013-01-04 00:31:00,
2013-01-03 19:36:00,31.9,22.2,30.23,WSW,254,7.0,16.0,67,0.00,,---,0.16,0.00,VWS V14.00,2013-01-04 00:36:00,
2013-01-03 19:41:00,31.7,22.0,30.24,West,268,12.0,18.0,67,0.00,,---,0.16,0.00,VWS V14.00,2013-01-04 00:41:00,
2013-01-03 19:46:00,31.7,22.4,30.24,West,277,7.0,18.0,68,0.00,,---,0.16,0.00,VWS V14.00,2013-01-04 00:46:00,
2013-01-03 19:51:00,31.5,22.2,30.24,West,271,5.0,18.0,68,0.00,,---,0.16,0.00,VWS V14.00,2013-01-04 00:51:00,
2013-01-03 19:56:00,31.4,22.1,30.24,West,269,5.0,18.0,68,0.00,,---,0.16,0.00,VWS V14.00,2013-01-04 00:56:00,
2013-01-03 20:00:00,31.3,22.3,30.24,WSW,246,11.0,18.0,69,0.00,,---,0.16,0.00,VWS V14.00,2013-01-04 01:00:00,
2013-01-03 20:01:00,31.3,22.3,30.24,West,259,10.0,14.0,69,0.00,,---,0.16,0.00,VWS V14.00,2013-01-04 01:01:00,
2013-01-03 20:06:00,31.3,22.3,30.24,West,260,10.0,14.0,69,0.00,,---,0.16,0.00,VWS V14.00,2013-01-04 01:06:00,
2013-01-03 20:11:00,31.4,22.4,30.24,WSW,253,10.0,14.0,69,0.00,,---,0.16,0.00,VWS V14.00,2013-01-04 01:11:00,
2013-01-03 20:17:00,31.4,22.4,30.24,West,263,13.0,14.0,69,0.00,,---,0.16,0.00,VWS V14.00,2013-01-04 01:17:00,
2013-01-03 20:22:00,31.3,22.3,30.24,WSW,247,11.0,14.0,69,0.00,,---,0.16,0.00,VWS V14.00,2013-01-04 01:22:00,
2013-01-03 20:27:00,31.3,22.3,30.24,WSW,252,7.0,14.0,69,0.00,,---,0.16,0.00,VWS V14.00,2013-01-04 01:27:00,
2013-01-03 20:30:00,31.2,22.2,30.24,West,263,5.0,14.0,69,0.00,,---,0.16,0.00,VWS V14.00,2013-01-04 01:30:00,
2013-01-03 20:32:00,31.2,22.2,30.24,WSW,244,7.0,7.0,69,0.00,,---,0.16,0.00,VWS V14.00,2013-01-04 01:32:00,
2013-01-03 20:37:00,31.2,22.2,30.24,West,271,11.0,14.0,69,0.00,,---,0.16,0.00,VWS V14.00,2013-01-04 01:37:00,
2013-01-03 20:42:00,31.2,22.6,30.24,WSW,251,5.0,19.0,70,0.00,,---,0.17,0.00,VWS V14.00,2013-01-04 01:42:00,
2013-01-03 20:47:00,31.1,22.1,30.24,West,259,13.0,21.0,69,0.00,,---,0.17,0.00,VWS V14.00,2013-01-04 01:47:00,
2013-01-03 20:52:00,31.1,22.5,30.24,West,277,9.0,21.0,70,0.00,,---,0.17,0.00,VWS V14.00,2013-01-04 01:52:00,
2013-01-03 20:57:00,31.0,22.4,30.24,WSW,250,8.0,21.0,70,0.00,,---,0.17,0.00,VWS V14.00,2013-01-04 01:57:00,
2013-01-03 21:00:00,31.0,22.4,30.24,West,277,9.0,21.0,70,0.00,,---,0.17,0.00,VWS V14.00,2013-01-04 02:00:00,
2013-01-03 21:02:00,31.0,22.4,30.24,SW,234,7.0,10.0,70,0.00,,---,0.17,0.00,VWS V14.00,2013-01-04 02:02:00,
2013-01-03 21:07:00,31.0,22.4,30.24,West,265,4.0,15.0,70,0.00,,---,0.17,0.00,VWS V14.00,2013-01-04 02:07:00,
2013-01-03 21:12:00,30.9,22.3,30.24,West,274,6.0,15.0,70,0.00,,---,0.17,0.00,VWS V14.00,2013-01-04 02:12:00,
2013-01-03 21:17:00,30.9,22.3,30.24,SW,225,5.0,16.0,70,0.00,,---,0.17,0.00,VWS V14.00,2013-01-04 02:17:00,
2013-01-03 21:22:00,30.9,22.3,30.24,WSW,251,10.0,16.0,70,0.00,,---,0.17,0.00,VWS V14.00,2013-01-04 02:22:00,
2013-01-03 21:27:00,30.8,22.2,30.24,WSW,252,15.0,16.0,70,0.00,,---,0.17,0.00,VWS V14.00,2013-01-04 02:27:00,
2013-01-03 21:30:00,30.8,22.2,30.24,West,262,14.0,18.0,70,0.00,,---,0.17,0.00,VWS V14.00,2013-01-04 02:30:00,
2013-01-03 21:32:00,30.9,22.3,30.24,WNW,287,16.0,19.0,70,0.00,,---,0.17,0.00,VWS V14.00,2013-01-04 02:32:00,
2013-01-03 21:37:00,30.8,21.9,30.24,West,268,7.0,20.0,69,0.00,,---,0.17,0.00,VWS V14.00,2013-01-04 02:37:00,
2013-01-03 21:42:00,30.7,21.8,30.24,West,274,16.0,22.0,69,0.00,,---,0.17,0.00,VWS V14.00,2013-01-04 02:42:00,
2013-01-03 21:47:00,30.6,22.0,30.25,West,263,6.0,22.0,70,0.00,,---,0.17,0.00,VWS V14.00,2013-01-04 02:47:00,
2013-01-03 21:52:00,30.5,21.9,30.25,WSW,250,19.0,22.0,70,0.00,,---,0.17,0.00,VWS V14.00,2013-01-04 02:52:00,
2013-01-03 21:57:00,30.5,21.6,30.25,WSW,252,17.0,22.0,69,0.00,,---,0.17,0.00,VWS V14.00,2013-01-04 02:57:00,
2013-01-03 22:00:00,30.5,21.6,30.25,WSW,250,12.0,22.0,69,0.00,,---,0.17,0.00,VWS V14.00,2013-01-04 03:00:00,
2013-01-03 22:02:00,30.5,21.6,30.25,WSW,250,7.0,13.0,69,0.00,,---,0.17,0.00,VWS V14.00,2013-01-04 03:02:00,
2013-01-03 22:07:00,30.3,21.7,30.25,WSW,250,12.0,18.0,70,0.00,,---,0.17,0.00,VWS V14.00,2013-01-04 03:07:00,
2013-01-03 22:12:00,30.2,21.6,30.25,WSW,249,17.0,20.0,70,0.00,,---,0.17,0.00,VWS V14.00,2013-01-04 03:12:00,
2013-01-03 22:17:00,30.2,21.6,30.25,WSW,258,13.0,24.0,70,0.00,,---,0.17,0.00,VWS V14.00,2013-01-04 03:17:00,
2013-01-03 22:22:00,30.1,21.9,30.25,WSW,242,7.0,24.0,71,0.00,,---,0.17,0.00,VWS V14.00,2013-01-04 03:22:00,
2013-01-03 22:27:00,30.1,21.9,30.26,West,281,7.0,24.0,71,0.00,,---,0.17,0.00,VWS V14.00,2013-01-04 03:27:00,
2013-01-03 22:30:00,29.9,22.0,30.26,WNW,282,12.0,24.0,72,0.00,,---,0.17,0.00,VWS V14.00,2013-01-04 03:30:00,
2013-01-03 22:32:00,29.9,22.0,30.26,WSW,257,15.0,18.0,72,0.00,,---,0.17,0.00,VWS V14.00,2013-01-04 03:32:00,
2013-01-03 22:37:00,29.7,21.8,30.26,West,271,11.0,18.0,72,0.00,,---,0.17,0.00,VWS V14.00,2013-01-04 03:37:00,
2013-01-03 22:42:00,29.6,22.0,30.26,West,277,13.0,23.0,73,0.00,,---,0.17,0.00,VWS V14.00,2013-01-04 03:42:00,
2013-01-03 22:48:00,29.4,21.8,30.27,WNW,290,14.0,23.0,73,0.00,,---,0.17,0.00,VWS V14.00,2013-01-04 03:48:00,
2013-01-03 22:53:00,29.2,22.0,30.27,West,279,9.0,23.0,74,0.00,,---,0.17,0.00,VWS V14.00,2013-01-04 03:53:00,
2013-01-03 22:58:00,29.1,22.2,30.27,WSW,249,11.0,23.0,75,0.00,,---,0.17,0.00,VWS V14.00,2013-01-04 03:58:00,
2013-01-03 23:00:00,29.0,22.1,30.27,WNW,288,13.0,23.0,75,0.00,,---,0.17,0.00,VWS V14.00,2013-01-04 04:00:00,
2013-01-03 23:03:00,29.0,22.1,30.27,WNW,286,8.0,15.0,75,0.00,,---,0.17,0.00,VWS V14.00,2013-01-04 04:03:00,
2013-01-03 23:08:00,28.9,22.0,30.27,West,267,11.0,20.0,75,0.00,,---,0.17,0.00,VWS V14.00,2013-01-04 04:08:00,
2013-01-03 23:13:00,28.8,22.2,30.27,West,272,13.0,20.0,76,0.00,,---,0.17,0.00,VWS V14.00,2013-01-04 04:13:00,
2013-01-03 23:18:00,28.8,21.9,30.27,WNW,294,8.0,20.0,75,0.00,,---,0.17,0.00,VWS V14.00,2013-01-04 04:18:00,
2013-01-03 23:23:00,28.7,22.1,30.27,West,270,9.0,20.0,76,0.00,,---,0.17,0.00,VWS V14.00,2013-01-04 04:23:00,
2013-01-03 23:28:00,28.7,21.8,30.27,WNW,290,14.0,21.0,75,0.00,,---,0.17,0.00,VWS V14.00,2013-01-04 04:28:00,
2013-01-03 23:30:00,28.7,21.8,30.27,West,271,9.0,21.0,75,0.00,,---,0.17,0.00,VWS V14.00,2013-01-04 04:30:00,
2013-01-03 23:33:00,28.6,22.0,30.27,West,275,9.0,12.0,76,0.00,,---,0.17,0.00,VWS V14.00,2013-01-04 04:33:00,
2013-01-03 23:38:00,28.5,21.9,30.27,West,277,11.0,13.0,76,0.00,,---,0.17,0.00,VWS V14.00,2013-01-04 04:38:00,
2013-01-03 23:43:00,28.5,21.9,30.27,West,272,6.0,15.0,76,0.00,,---,0.17,0.00,VWS V14.00,2013-01-04 04:43:00,
2013-01-03 23:48:00,28.4,21.5,30.26,West,275,13.0,15.0,75,0.00,,---,0.17,0.00,VWS V14.00,2013-01-04 04:48:00,
2013-01-03 23:53:00,28.4,21.5,30.27,West,277,9.0,15.0,75,0.00,,---,0.17,0.00,VWS V14.00,2013-01-04 04:53:00,
2013-01-03 23:58:00,28.4,21.5,30.26,West,272,13.0,15.0,75,0.00,,---,0.17,0.00,VWS V14.00,2013-01-04 04:58:00,